STARLINK-32399, 61627

Orbit data source: Space-Track

STARLINK-32399, 61627 is a payload satellite owned by SpaceX/Seattle (US) in LEO that was launched on Wed, 23 Oct 2024 UTC via an FALCON 9 launch vehicle from the Air Force Eastern Test Range (AFETR). Payload-class satellites include a variety of spacecraft equipped with specific instruments for various scientific and technological missions. These include communications satellites like Starlink; space stations such as the ISS; scientific satellites like the Hubble; Earth observation satellites from companies like Planet Labs, Umbra, and HawkEye 360; GPS; miniature CubeSats for education and research; and military/defense satellites.

Loading next visibility...
Identifier
61627, 2024-191G
Orbit
LEO
Country
Flag of USUS
Related business
Manufacturer
SpaceX/Seattle
Mission
Operational Commercial Communications
Bus & Motor
STARLINK V2M, Unknown motor
Mass
730 kg wet, ~700 kg dry
Launch date (UTC)
2024-10-23 (1 year ago)
Launch vehicle
FALCON 9
Launch site
Air Force Eastern Test Range (AFETR)
Object type
Payload
Rocket body
Debris
Shape & HBR
Box + 2 Pan, 17.7 m
Radar Cross Section
33.884 m², Large (>1 m²)

Expand to show TLE details & history
Last TLE update: 13 hours ago

TLE from 13 hours ago
0 STARLINK-32399
1 61627U 24191G   25312.47249120 -.00000435  00000-0 -62812-5 0  9999
2 61627  43.0040 111.6451 0000902 241.5386 118.5375 15.27569997 59086
Epoch: 2025-11-08T11:20Z
TLE epoch observation values (Epoch: 2025-11-08T11:20:23.239Z)
Latitude
-0.00002°
Longitude
-106.35336°
Altitude
483.151 km
Speed
7.625 km/s
True Right ascension
07h 26m 34s
True Declination
0° 00' 00"
Sunlit
Object was in daylight at epoch
Visualization orbit readout
Latitude
Unknown
Longitude
Unknown
Altitude
Unknown
Speed
Unknown
Apparent Right ascension
Unknown
Apparent Declination
Unknown
Sunlit
N/A
Visualization observer readout
Local Sidereal Time
20:12:52
Azimuth
Unknown
Elevation
Unknown
Doppler factor
Unknown
Orbital elements
Apogee altitude
485.643 km
Perigee altitude
484.404 km
Semi-major axis
6,863.161 km
Eccentricity
0.00009
Inclination
43.004°
RAAN
111.6451°
Arg. of periapsis
241.5386°
True anomaly
118.54658°
Mean anomaly
118.5375°
Eccentric anomaly
118.54204°
Mean motion
3.81731 °/min
Orbital period
94.31 mins
BSTAR
-0.0000062812
Loading maneuver chart data...
Computing Atmospheric mass density...
Loading historical data...
Loading historical data...
Loading historical data...
Loading historical data...
Loading historical data...
Loading historical data...
Loading historical data...

Documentation

Showing up to 5 results
|